Date String (YYYY-MM-DD hh:mm:ss) UTC,Instrument flags,Ambient pressure (hPa),Sample flow (lpm),Bypass flow (lpm),Sample temperature (°C),Ambient temperature (°C),ASC tube jacket temperature (°C),LED temperature (°C),Box temperature (°C),Sample RH (%),Span deviation,Mass concentration (μg/m³),Mass concentration (μg/m³),Mass concentration (μg/m³)
DateTimeUTC,F1_M11,P_M11,Q1_M11,Q2_M11,T1_M11,T2_M11,T3_M11,T4_M11,T5_M11,U1_M11,ZSPAN_M11,X0_M11,X2_M11,X1_M11
2021-10-24 08:00:00,,0818.1,5.00,0.00,28.6,27.7,00.0,37.8,30.3,13.2,0000.0,0021.22,0007.03,0004.81
2021-10-24 08:01:00,,0818.1,4.99,0.00,28.6,27.7,00.0,37.8,30.3,13.1,0000.0,0020.70,0007.00,0004.77
2021-10-24 08:02:00,,0818.2,5.01,0.00,28.6,27.7,00.0,37.8,30.3,13.1,0000.0,0021.25,0007.01,0004.72
2021-10-24 08:03:00,,0818.2,5.01,0.00,28.6,27.7,00.0,37.8,30.3,13.1,0000.0,0021.15,0007.02,0004.67
2021-10-24 08:04:00,,0818.2,5.00,0.00,28.6,27.6,00.0,37.8,30.3,13.2,0000.0,0022.08,0006.96,0004.66
2021-10-24 08:05:00,,0818.2,5.01,0.00,28.6,27.7,00.0,37.8,30.3,13.2,0000.0,0021.95,0006.90,0004.63
2021-10-24 08:06:00,,0818.2,4.99,0.00,28.6,27.7,00.0,37.8,30.4,13.2,0000.0,0021.10,0006.87,0004.59
2021-10-24 08:07:00,,0818.2,5.00,0.00,28.6,27.7,00.0,37.8,30.3,13.2,0000.0,0021.87,0006.80,0004.55
2021-10-24 08:08:00,,0818.2,5.01,0.00,28.6,27.7,00.0,37.8,30.3,13.2,0000.0,0020.70,0006.70,0004.49
2021-10-24 08:09:00,,0818.2,5.01,0.00,28.6,27.6,00.0,37.8,30.3,13.2,0000.0,0019.18,0006.55,0004.42
2021-10-24 08:10:00,,0818.2,5.00,0.00,28.6,27.7,00.0,37.7,30.3,13.2,0000.0,0019.43,0006.44,0004.36
2021-10-24 08:11:00,,0818.2,4.99,0.00,28.6,27.7,00.0,37.7,30.3,13.1,0000.0,0019.99,0006.38,0004.29
2021-10-24 08:12:00,,0818.2,5.00,0.00,28.6,27.7,00.0,37.7,30.3,13.1,0000.0,0020.06,0006.31,0004.24
2021-10-24 08:13:00,,0818.2,5.01,0.00,28.6,27.6,00.0,37.7,30.3,13.1,0000.0,0019.24,0006.21,0004.19
2021-10-24 08:14:00,,0818.2,5.00,0.00,28.6,27.6,00.0,37.7,30.3,13.1,0000.0,0018.89,0006.09,0004.14
2021-10-24 08:15:00,,0818.2,4.99,0.00,28.6,27.6,00.0,37.7,30.3,13.1,0000.0,0017.05,0005.98,0004.07
2021-10-24 08:16:00,,0818.2,5.00,0.00,28.6,27.6,00.0,37.7,30.3,13.1,0000.0,0016.92,0005.82,0003.99
2021-10-24 08:17:00,,0818.3,5.00,0.00,28.6,27.6,00.0,37.7,30.3,13.0,0000.0,0017.02,0005.73,0003.91
2021-10-24 08:18:00,,0818.2,5.00,0.00,28.6,27.6,00.0,37.7,30.2,13.0,0000.0,0015.59,0005.59,0003.81
2021-10-24 08:19:00,,0818.2,5.00,0.00,28.6,27.6,00.0,37.7,30.2,13.0,0000.0,0015.33,0005.47,0003.72
2021-10-24 08:20:00,,0818.2,5.00,0.00,28.6,27.6,00.0,37.7,30.2,13.0,0000.0,0014.80,0005.30,0003.63
2021-10-24 08:21:00,,0818.2,4.99,0.00,28.5,27.6,00.0,37.7,30.2,13.0,0000.0,0013.97,0005.16,0003.53
2021-10-24 08:22:00,,0818.2,5.01,0.00,28.5,27.6,00.0,37.7,30.2,13.0,0000.0,0013.09,0005.00,0003.43
2021-10-24 08:23:00,,0818.3,4.99,0.00,28.5,27.6,00.0,37.7,30.2,13.1,0000.0,0012.36,0004.80,0003.33
2021-10-24 08:24:00,,0818.2,5.01,0.00,28.5,27.5,00.0,37.7,30.1,13.0,0000.0,0011.96,0004.58,0003.22
2021-10-24 08:25:00,,0818.2,5.01,0.00,28.5,27.5,00.0,37.7,30.1,13.0,0000.0,0011.62,0004.45,0003.13
2021-10-24 08:26:00,,0818.3,4.99,0.00,28.5,27.5,00.0,37.7,30.1,13.0,0000.0,0011.56,0004.30,0003.01
2021-10-24 08:27:00,,0818.4,5.00,0.00,28.5,27.5,00.0,37.7,30.2,13.0,0000.0,0010.89,0004.19,0002.88
2021-10-24 08:28:00,,0818.4,5.01,0.00,28.5,27.5,00.0,37.7,30.2,13.0,0000.0,0010.27,0004.06,0002.78
2021-10-24 08:29:00,,0818.4,5.00,0.00,28.5,27.5,00.0,37.7,30.2,13.0,0000.0,0011.75,0003.99,0002.71
2021-10-24 08:30:00,,0818.4,4.99,0.00,28.5,27.5,00.0,37.7,30.1,13.0,0000.0,0011.92,0003.92,0002.66
2021-10-24 08:31:00,,0818.4,5.00,0.00,28.5,27.5,00.0,37.7,30.1,13.0,0000.0,0012.13,0003.93,0002.60
2021-10-24 08:32:00,,0818.4,5.00,0.00,28.5,27.4,00.0,37.7,30.1,13.0,0000.0,0012.08,0003.88,0002.56
2021-10-24 08:33:00,,0818.4,4.99,0.00,28.5,27.4,00.0,37.6,30.1,13.0,0000.0,0011.92,0003.83,0002.52
2021-10-24 08:34:00,,0818.4,5.01,0.00,28.5,27.4,00.0,37.6,30.1,13.0,0000.0,0011.75,0003.82,0002.49
2021-10-24 08:35:00,,0818.5,4.99,0.00,28.4,27.4,00.0,37.6,30.1,13.0,0000.0,0011.52,0003.82,0002.46
2021-10-24 08:36:00,,0818.4,5.01,0.00,28.4,27.4,00.0,37.6,30.1,13.0,0000.0,0011.06,0003.76,0002.42
2021-10-24 08:37:00,,0818.4,4.99,0.00,28.4,27.4,00.0,37.6,30.1,13.0,0000.0,0010.69,0003.73,0002.39
2021-10-24 08:38:00,,0818.5,5.00,0.00,28.4,27.4,00.0,37.6,30.1,13.0,0000.0,0011.62,0003.73,0002.37
2021-10-24 08:39:00,,0818.5,5.02,0.00,28.4,27.5,00.0,37.6,30.1,13.0,0000.0,0011.50,0003.67,0002.34
2021-10-24 08:40:00,,0818.5,4.99,0.00,28.4,27.5,00.0,37.6,30.2,13.0,0000.0,0009.79,0003.62,0002.32
2021-10-24 08:41:00,,0818.4,5.01,0.00,28.4,27.5,00.0,37.6,30.1,13.1,0000.0,0009.60,0003.58,0002.28
2021-10-24 08:42:00,,0818.5,5.00,0.00,28.4,27.4,00.0,37.6,30.1,13.1,0000.0,0009.53,0003.52,0002.24
2021-10-24 08:43:00,,0818.4,4.99,0.00,28.4,27.4,00.0,37.6,30.1,13.1,0000.0,0009.65,0003.51,0002.20
2021-10-24 08:44:00,,0818.5,5.00,0.00,28.4,27.4,00.0,37.6,30.1,13.0,0000.0,0009.76,0003.55,0002.19
2021-10-24 08:45:00,,0818.5,5.01,0.00,28.4,27.4,00.0,37.6,30.1,13.0,0000.0,0009.95,0003.59,0002.19
2021-10-24 08:46:00,,0818.5,5.00,0.00,28.4,27.4,00.0,37.6,30.1,13.0,0000.0,0010.05,0003.62,0002.21
2021-10-24 08:47:00,,0818.4,5.00,0.00,28.4,27.4,00.0,37.6,30.2,13.0,0000.0,0010.06,0003.63,0002.22
2021-10-24 08:48:00,,0818.4,4.99,0.00,28.4,27.5,00.0,37.6,30.2,13.0,0000.0,0010.05,0003.65,0002.23
2021-10-24 08:49:00,,0818.4,4.99,0.00,28.4,27.5,00.0,37.6,30.2,13.0,0000.0,0009.22,0003.68,0002.23
2021-10-24 08:50:00,,0818.4,5.00,0.00,28.4,27.5,00.0,37.6,30.2,13.0,0000.0,0009.06,0003.71,0002.21
2021-10-24 08:51:00,,0818.4,5.00,0.00,28.5,27.5,00.0,37.6,30.2,13.0,0000.0,0009.10,0003.76,0002.22
2021-10-24 08:52:00,,0818.3,5.00,0.00,28.5,27.5,00.0,37.6,30.2,13.1,0000.0,0009.16,0003.79,0002.24
2021-10-24 08:53:00,,0818.2,4.99,0.00,28.5,27.5,00.0,37.6,30.2,13.1,0000.0,0009.21,0003.77,0002.24
2021-10-24 08:54:00,,0818.3,4.99,0.00,28.4,27.5,00.0,37.6,30.2,13.1,0000.0,0009.78,0003.75,0002.26
2021-10-24 08:55:00,,0818.5,5.00,0.00,28.5,27.6,00.0,37.6,30.2,13.1,0000.0,0010.37,0003.68,0002.24
2021-10-24 08:56:00,,0818.5,5.01,0.00,28.5,27.6,00.0,37.6,30.2,13.1,0000.0,0010.34,0003.66,0002.23
2021-10-24 08:57:00,,0818.5,5.00,0.00,28.5,27.5,00.0,37.6,30.2,13.0,0000.0,0010.23,0003.63,0002.22
2021-10-24 08:58:00,,0818.5,5.00,0.00,28.5,27.5,00.0,37.6,30.2,13.0,0000.0,0010.60,0003.64,0002.22
2021-10-24 08:59:00,,0818.5,5.00,0.00,28.5,27.5,00.0,37.6,30.2,13.0,0000.0,0010.87,0003.62,0002.22
